,,PressureMeas_1m,,PRMeasQMR101_1,,RHStat155_1m_1,,SRMeasQMS101R_1m,,TAStat155_1m_1,,GenWind_1,,GenWind_1,
2017-09-02, 07:00:06,VALID,917.275,VALID,0.0,VALID,92.948,VALID,64.476,VALID,20.547,VALID,124.0,VALID,1.436,
2017-09-02, 07:01:06,VALID,917.274,VALID,0.0,VALID,93.011,VALID,65.75,VALID,20.559,VALID,141.0,VALID,1.646,
2017-09-02, 07:02:06,VALID,917.292,VALID,0.0,VALID,92.877,VALID,66.05,VALID,20.575,VALID,140.0,VALID,1.65,
2017-09-02, 07:03:06,VALID,917.323,VALID,0.0,VALID,92.965,VALID,66.277,VALID,20.575,VALID,132.0,VALID,2.303,
2017-09-02, 07:04:06,VALID,917.362,VALID,0.0,VALID,92.444,VALID,67.42,VALID,20.675,VALID,121.0,VALID,2.516,
2017-09-02, 07:05:06,VALID,917.398,VALID,0.0,VALID,92.143,VALID,67.702,VALID,20.773,VALID,133.0,VALID,2.031,
2017-09-02, 07:06:06,VALID,917.418,VALID,0.0,VALID,92.041,VALID,68.978,VALID,20.776,VALID,136.0,VALID,2.154,
2017-09-02, 07:07:06,VALID,917.442,VALID,0.0,VALID,92.257,VALID,73.063,VALID,20.764,VALID,133.0,VALID,2.02,
2017-09-02, 07:08:06,VALID,917.465,VALID,0.0,VALID,92.251,VALID,75.061,VALID,20.795,VALID,124.0,VALID,2.2,
2017-09-02, 07:09:06,VALID,917.487,VALID,0.0,VALID,92.149,VALID,73.629,VALID,20.853,VALID,132.0,VALID,2.496,
2017-09-02, 07:10:06,VALID,917.519,VALID,0.0,VALID,91.866,VALID,70.8,VALID,20.874,VALID,137.0,VALID,2.549,
2017-09-02, 07:11:06,VALID,917.55,VALID,0.0,VALID,91.937,VALID,70.163,VALID,20.858,VALID,131.0,VALID,2.693,
2017-09-02, 07:12:06,VALID,917.552,VALID,0.0,VALID,92.102,VALID,72.099,VALID,20.826,VALID,133.0,VALID,2.846,
2017-09-02, 07:13:06,VALID,917.533,VALID,0.0,VALID,91.74,VALID,69.992,VALID,20.848,VALID,139.0,VALID,3.496,
2017-09-02, 07:14:06,VALID,917.541,VALID,0.0,VALID,91.599,VALID,73.033,VALID,20.88,VALID,125.0,VALID,2.885,
2017-09-02, 07:15:06,VALID,917.523,VALID,0.0,VALID,91.379,VALID,77.277,VALID,20.902,VALID,119.0,VALID,2.62,
2017-09-02, 07:16:06,VALID,917.534,VALID,0.0,VALID,91.271,VALID,74.537,VALID,20.915,VALID,115.0,VALID,3.2,
2017-09-02, 07:17:06,VALID,917.571,VALID,0.0,VALID,91.561,VALID,70.154,VALID,20.845,VALID,108.0,VALID,3.023,
2017-09-02, 07:18:06,VALID,917.591,VALID,0.0,VALID,91.253,VALID,67.245,VALID,20.837,VALID,80.0,VALID,2.145,
2017-09-02, 07:19:06,VALID,917.684,VALID,0.0,VALID,91.06,VALID,66.26,VALID,20.924,VALID,106.0,VALID,2.916,
2017-09-02, 07:20:06,VALID,917.73,VALID,0.0,VALID,90.17,VALID,66.708,VALID,21.007,VALID,100.0,VALID,3.043,
2017-09-02, 07:21:06,VALID,917.768,VALID,0.0,VALID,89.276,VALID,66.123,VALID,21.08,VALID,75.0,VALID,3.23,
2017-09-02, 07:22:06,VALID,917.82,VALID,0.0,VALID,87.489,VALID,65.509,VALID,21.269,VALID,87.0,VALID,4.43,
2017-09-02, 07:23:06,VALID,917.811,VALID,0.0,VALID,85.874,VALID,69.626,VALID,21.496,VALID,75.0,VALID,3.778,
2017-09-02, 07:24:06,VALID,917.821,VALID,0.0,VALID,85.829,VALID,79.834,VALID,21.564,VALID,90.0,VALID,3.85,
2017-09-02, 07:25:06,VALID,917.803,VALID,0.0,VALID,85.975,VALID,90.512,VALID,21.575,VALID,103.0,VALID,3.353,
2017-09-02, 07:26:06,VALID,917.749,VALID,0.0,VALID,86.677,VALID,100.664,VALID,21.501,VALID,94.0,VALID,2.966,
2017-09-02, 07:27:06,VALID,917.703,VALID,0.0,VALID,86.569,VALID,113.816,VALID,21.477,VALID,94.0,VALID,3.329,
2017-09-02, 07:28:06,VALID,917.657,VALID,0.0,VALID,86.563,VALID,125.469,VALID,21.504,VALID,96.0,VALID,3.321,
2017-09-02, 07:29:06,VALID,917.627,VALID,0.0,VALID,86.728,VALID,134.907,VALID,21.506,VALID,94.0,VALID,3.602,
2017-09-02, 07:30:06,VALID,917.621,VALID,0.0,VALID,86.744,VALID,136.894,VALID,21.511,VALID,86.0,VALID,3.0,
2017-09-02, 07:31:06,VALID,917.574,VALID,0.0,VALID,86.588,VALID,139.741,VALID,21.51,VALID,85.0,VALID,3.929,
2017-09-02, 07:32:06,VALID,917.621,VALID,0.0,VALID,85.768,VALID,143.073,VALID,21.591,VALID,91.0,VALID,4.062,
2017-09-02, 07:33:06,VALID,917.629,VALID,0.0,VALID,85.665,VALID,146.99,VALID,21.636,VALID,100.0,VALID,3.796,
2017-09-02, 07:34:06,VALID,917.655,VALID,0.0,VALID,86.134,VALID,149.052,VALID,21.616,VALID,111.0,VALID,3.868,
2017-09-02, 07:35:06,VALID,917.672,VALID,0.0,VALID,86.429,VALID,152.317,VALID,21.578,VALID,103.0,VALID,4.11,
2017-09-02, 07:36:06,VALID,917.715,VALID,0.0,VALID,86.205,VALID,155.371,VALID,21.598,VALID,99.0,VALID,3.027,
2017-09-02, 07:37:06,VALID,917.718,VALID,0.0,VALID,86.675,VALID,154.471,VALID,21.555,VALID,95.0,VALID,3.357,
2017-09-02, 07:38:06,VALID,917.722,VALID,0.0,VALID,87.512,VALID,153.175,VALID,21.496,VALID,91.0,VALID,1.909,
2017-09-02, 07:39:06,VALID,917.733,VALID,0.0,VALID,88.134,VALID,156.623,VALID,21.442,VALID,75.0,VALID,2.609,
2017-09-02, 07:40:06,VALID,917.742,VALID,0.0,VALID,87.705,VALID,155.601,VALID,21.482,VALID,90.0,VALID,2.458,
2017-09-02, 07:41:06,VALID,917.727,VALID,0.0,VALID,87.186,VALID,152.203,VALID,21.528,VALID,68.0,VALID,3.487,
2017-09-02, 07:42:06,VALID,917.77,VALID,0.0,VALID,85.968,VALID,152.932,VALID,21.651,VALID,95.0,VALID,2.996,
2017-09-02, 07:43:06,VALID,917.775,VALID,0.0,VALID,85.476,VALID,157.224,VALID,21.696,VALID,97.0,VALID,3.228,
2017-09-02, 07:44:06,VALID,917.794,VALID,0.0,VALID,85.576,VALID,157.743,VALID,21.711,VALID,82.0,VALID,3.0,
2017-09-02, 07:45:06,VALID,917.802,VALID,0.0,VALID,85.211,VALID,157.299,VALID,21.74,VALID,78.0,VALID,2.518,
2017-09-02, 07:46:06,VALID,917.841,VALID,0.0,VALID,85.484,VALID,155.257,VALID,21.752,VALID,93.0,VALID,2.365,
2017-09-02, 07:47:06,VALID,917.862,VALID,0.0,VALID,84.56,VALID,161.036,VALID,21.785,VALID,96.0,VALID,2.633,
2017-09-02, 07:48:06,VALID,917.901,VALID,0.0,VALID,85.479,VALID,163.784,VALID,21.81,VALID,81.0,VALID,2.587,
2017-09-02, 07:49:06,VALID,917.957,VALID,0.0,VALID,85.462,VALID,164.472,VALID,21.794,VALID,102.0,VALID,2.049,
2017-09-02, 07:50:06,VALID,917.977,VALID,0.0,VALID,85.87,VALID,163.902,VALID,21.828,VALID,111.0,VALID,1.645,
2017-09-02, 07:51:06,VALID,918.001,VALID,0.0,VALID,85.302,VALID,164.921,VALID,21.89,VALID,104.0,VALID,1.67,
2017-09-02, 07:52:06,VALID,918.012,VALID,0.0,VALID,86.288,VALID,171.18,VALID,21.929,VALID,114.0,VALID,2.091,
2017-09-02, 07:53:06,VALID,918.009,VALID,0.0,VALID,86.236,VALID,180.862,VALID,21.882,VALID,111.0,VALID,2.018,
2017-09-02, 07:54:06,VALID,917.997,VALID,0.0,VALID,87.012,VALID,195.738,VALID,21.819,VALID,114.0,VALID,2.378,
2017-09-02, 07:55:06,VALID,917.993,VALID,0.0,VALID,86.856,VALID,245.744,VALID,21.775,VALID,133.0,VALID,2.632,
2017-09-02, 07:56:06,VALID,917.981,VALID,0.0,VALID,88.056,VALID,279.867,VALID,21.761,VALID,110.0,VALID,2.112,
2017-09-02, 07:57:06,VALID,917.971,VALID,0.0,VALID,87.526,VALID,276.402,VALID,21.813,VALID,112.0,VALID,2.876,
2017-09-02, 07:58:06,VALID,917.988,VALID,0.0,VALID,87.574,VALID,282.528,VALID,21.878,VALID,118.0,VALID,2.446,
2017-09-02, 07:59:06,VALID,917.985,VALID,0.0,VALID,87.702,VALID,319.475,VALID,21.966,VALID,118.0,VALID,2.392,
2017-09-02, 08:00:06,VALID,917.991,VALID,0.0,VALID,85.985,VALID,350.835,VALID,22.092,VALID,98.0,VALID,2.575,
2017-09-02, 08:01:06,VALID,917.99,VALID,0.0,VALID,86.763,VALID,353.886,VALID,22.204,VALID,111.0,VALID,2.73,
2017-09-02, 08:02:06,VALID,917.956,VALID,0.0,VALID,84.394,VALID,341.084,VALID,22.142,VALID,104.0,VALID,3.786,
2017-09-02, 08:03:06,VALID,917.961,VALID,0.0,VALID,84.843,VALID,365.734,VALID,22.133,VALID,112.0,VALID,2.935,
2017-09-02, 08:04:06,VALID,917.946,VALID,0.0,VALID,85.144,VALID,389.528,VALID,22.171,VALID,105.0,VALID,3.574,
2017-09-02, 08:05:06,VALID,917.917,VALID,0.0,VALID,83.411,VALID,387.521,VALID,22.256,VALID,104.0,VALID,3.788,
2017-09-02, 08:06:06,VALID,917.905,VALID,0.0,VALID,83.273,VALID,396.036,VALID,22.353,VALID,113.0,VALID,3.676,
2017-09-02, 08:07:06,VALID,917.909,VALID,0.0,VALID,83.771,VALID,398.782,VALID,22.47,VALID,104.0,VALID,2.829,
2017-09-02, 08:08:06,VALID,917.865,VALID,0.0,VALID,82.644,VALID,393.264,VALID,22.609,VALID,71.0,VALID,4.267,
2017-09-02, 08:09:06,VALID,917.929,VALID,0.0,VALID,80.714,VALID,394.035,VALID,22.65,VALID,105.0,VALID,4.743,
2017-09-02, 08:10:06,VALID,917.923,VALID,0.0,VALID,81.175,VALID,406.672,VALID,22.677,VALID,107.0,VALID,2.9,
2017-09-02, 08:11:06,VALID,917.912,VALID,0.0,VALID,80.343,VALID,422.573,VALID,22.747,VALID,104.0,VALID,4.795,
2017-09-02, 08:12:06,VALID,917.932,VALID,0.0,VALID,80.679,VALID,428.065,VALID,22.791,VALID,85.0,VALID,4.082,
2017-09-02, 08:13:06,VALID,917.922,VALID,0.0,VALID,80.751,VALID,451.742,VALID,22.818,VALID,66.0,VALID,3.17,
2017-09-02, 08:14:06,VALID,917.942,VALID,0.0,VALID,80.536,VALID,469.218,VALID,22.873,VALID,89.0,VALID,2.479,
2017-09-02, 08:15:06,VALID,917.919,VALID,0.0,VALID,79.95,VALID,462.951,VALID,22.886,VALID,78.0,VALID,3.731,
2017-09-02, 08:16:06,VALID,917.916,VALID,0.0,VALID,79.633,VALID,453.384,VALID,22.905,VALID,120.0,VALID,4.684,
2017-09-02, 08:17:06,VALID,917.921,VALID,0.0,VALID,79.386,VALID,450.694,VALID,22.889,VALID,109.0,VALID,4.551,
2017-09-02, 08:18:06,VALID,917.924,VALID,0.0,VALID,79.924,VALID,458.949,VALID,22.864,VALID,106.0,VALID,3.307,
2017-09-02, 08:19:06,VALID,917.922,VALID,0.0,VALID,81.26,VALID,446.742,VALID,22.944,VALID,84.0,VALID,2.13,
2017-09-02, 08:20:06,VALID,917.915,VALID,0.0,VALID,80.307,VALID,440.063,VALID,23.015,VALID,75.0,VALID,3.435,
2017-09-02, 08:21:06,VALID,917.887,VALID,0.0,VALID,80.293,VALID,454.954,VALID,23.029,VALID,62.0,VALID,3.681,
2017-09-02, 08:22:06,VALID,917.903,VALID,0.0,VALID,79.67,VALID,462.88,VALID,23.079,VALID,60.0,VALID,2.724,
2017-09-02, 08:23:06,VALID,917.925,VALID,0.0,VALID,79.882,VALID,456.738,VALID,23.155,VALID,74.0,VALID,2.85,
2017-09-02, 08:24:06,VALID,917.943,VALID,0.0,VALID,78.692,VALID,471.878,VALID,23.157,VALID,65.0,VALID,2.682,
2017-09-02, 08:25:06,VALID,917.938,VALID,0.0,VALID,79.173,VALID,486.927,VALID,23.231,VALID,82.0,VALID,2.534,
2017-09-02, 08:26:06,VALID,917.954,VALID,0.0,VALID,79.585,VALID,507.83,VALID,23.258,VALID,49.0,VALID,2.935,
2017-09-02, 08:27:06,VALID,917.97,VALID,0.0,VALID,78.677,VALID,534.961,VALID,23.28,VALID,51.0,VALID,3.009,
